Regional Weather Roundup
Issued by NWS Goodland, KS

Home | Current Version | Previous Version | Graphics & Text | Print | Product List | Glossary On
Versions: 1 2 3 4 5 6 7 8 9 10 11 12 13 14 15 16 17 18 19 20 21 22 23 24 25 26 27 28 29 30 31 32 33 34 35 36 37 38 39 40 41 42 43 44 45 46 47 48 49 50
000
ASUS43 KGLD 310608
RWRGLD

GOODLAND FORECAST AREA HOURLY WEATHER ROUNDUP
NATIONAL WEATHER SERVICE GOODLAND KS
1200 AM MDT TUE MAY 31 2016

...OFFICIAL OBSERVATIONS...

CITY           SKY/WX    TMP DP  RH WIND       PRES   REMARKS
GOODLAND KS    CLOUDY    51  50  96 NW6       29.94F
HILL CITY KS   CLOUDY    60  57  89 E3        29.87F
IMPERIAL NEB   CLOUDY    57  53  86 N9        29.99R
MCCOOK NEB     CLOUDY    56  53  90 W6        29.93S
AKRON CO       PTCLDY    54  49  83 N13       30.02R
BURLINGTON CO  CLOUDY    57  48  72 N8        29.99F
LIMON CO       CLOUDY    48  46  93 N5        30.05F
$$

...UNOFFICIAL OBSERVATIONS...

CITY           SKY/WX    TMP DP  RH WIND       PRES   REMARKS
GOVE KS          N/A    N/A N/A N/A MISG        N/A
LENORA KS        N/A     58  32  37 MISG        N/A
SHARON SPRINGS   N/A     55  51  87 CALM        N/A
TRIBUNE KS     CLOUDY    59  54  82 SE3       29.95F
KIT CARSON CO    N/A     57  49  76 MISG        N/A
YUMA CO          N/A     59  48  67 CALM        N/A
$$




USA.gov is the U.S. government's official web portal to all federal, state and local government web resources and services.